Flag for Uruguay Weather past 2 weeks in Maldonado, Uruguay

Now
55 °F

Clear.


Feels Like: 55 °F
Forecast: 61 / 75 °F
Wind: 5 mph from North

Location: Capitan Corbeta

Current Time: Aug 21, 2014 at 3:59:17 AM

Latest Report: Aug 21, 2014 at 2:00 AM


Visibility: 10 mi

Pressure: 29.98 "Hg

Humidity: 88%

Dew point: 52 °F

Location of MaldonadoLocation

Historic Weather in Maldonado — Graph

°F

Maldonado temperature yesterday

Maximum temperature yesterday: 70 °F (at 1:00 PM)
Minimum temperature yesterday: 48 °F (at 6:00 AM)
Average temperature yesterday: 57 °F

Past Weeks' High & Low Weather Summary

 TemperatureHumidityPressure
High77 °F (Aug 18, 3:00 PM)100% (Aug 7, 10:00 PM)30.36 "Hg (Aug 7, 10:00 PM)
Low37 °F (Aug 12, 1:00 AM)28% (Aug 15, 3:00 PM)29.83 "Hg (Aug 6, 3:00 PM)
Average53 °F71%30.13 "Hg
* Reported Aug 6 4:00 AM — Aug 21 2:00 AM, Maldonado, Weather by CustomWeather, © 2014

Note: Actual official high and low records may vary slightly from our data, if they occured in-between our weather recording intervals... More about our weather records

Advertising

Maldonado weather history for previous 24 hours

 ConditionsComfort  
Time TempWeatherWind HumidityBarometerVisibility
2:00 AM
Aug 21
55 °FClear.5 mph88%29.98 "Hg10 mi
1:00 AM57 °FClear.8 mph94%29.98 "Hg10 mi
12:00 AM55 °FClear.6 mph94%30.01 "Hg10 mi
11:00 PM
Aug 20
55 °FClear.5 mph94%30.01 "Hg10 mi
10:00 PM57 °FClear.3 mph94%29.98 "Hg10 mi
9:00 PM57 °FClear.6 mph94%29.98 "Hg10 mi
8:00 PM61 °FClear.6 mph88%29.98 "Hg10 mi
7:00 PM63 °FClear.9 mph77%30.01 "Hg10 mi
6:00 PM68 °FClear.3 mph73%29.98 "Hg10 mi
1:00 PM70 °FSunny.7 mph57%30.07 "Hg10 mi
12:00 PM68 °FSunny.6 mph56%30.09 "Hg10 mi
11:00 AM64 °FSunny.7 mph68%30.12 "Hg10 mi
10:00 AM59 °FSunny.7 mph82%30.12 "Hg10 mi
9:00 AM54 °FSunny.5 mph94%30.12 "Hg10 mi
8:00 AM50 °FSunny.6 mph94%30.12 "Hg10 mi
7:00 AM50 °FSunny.5 mph94%30.12 "Hg10 mi
6:00 AM48 °FClear.5 mph94%30.12 "Hg10 mi
5:00 AM50 °FClear.5 mph94%30.09 "Hg10 mi
4:00 AM50 °FLight fog.3 mph100%30.12 "Hg0 mi
Weather by CustomWeather, © 2014

See weather overviewHow to use our weather pages